FW1436 Weather Reports


time (UTC)temp
C
wind
direction
speed
KPH
gust
KPH
rain 1hr
cm
rain 24hr
cm
rain mn
cm
humidity
%
barometer
mb
20260505234550 8 148 0.0 3.2 0.00 0.00 0.00 72 1010.6
20260505233044 8 162 0.0 1.6 0.00 0.00 0.00 71 1010.4
20260505231552 8 212 0.0 1.6 0.00 0.00 0.00 68 1010.4
20260505230052 9 261 0.0 1.6 0.00 0.00 0.00 67 1010.4
20260505224537 10 117 0.0 3.2 0.00 0.00 0.00 64 1010.3
20260505223036 10 121 0.0 1.6 0.00 0.00 0.00 63 1010.2
20260505221535 10 158 0.0 1.6 0.00 0.00 0.00 62 1010.3
20260505220032 10 124 0.0 4.8 0.00 0.00 0.00 62 1010.4
20260505214530 10 98 0.0 1.6 0.00 0.00 0.00 60 1010.4
20260505213030 11 98 0.0 3.2 0.00 0.00 0.00 58 1010.4
20260505211529 11 68 0.0 1.6 0.00 0.00 0.00 57 1010.4
20260505210030 12 314 0.0 0.0 0.00 0.00 0.00 54 1010.3
20260505204530 12 34 0.0 6.4 0.00 0.00 0.00 54 1010.3
20260505203028 12 302 0.0 4.8 0.00 0.00 0.00 52 1010.1
20260505201529 12 18 0.0 4.8 0.00 0.00 0.00 52 1010.1
20260505200028 13 262 0.0 6.4 0.00 0.00 0.00 50 1009.9
20260505194526 13 317 1.6 9.7 0.00 0.00 0.00 48 1009.7
20260505193025 13 316 3.2 9.7 0.00 0.00 0.00 47 1009.6
20260505191527 14 303 3.2 12.9 0.00 0.00 0.00 45 1009.5
20260505190024 15 287 4.8 16.1 0.00 0.00 0.00 43 1009.4
20260505184525 16 282 4.8 16.1 0.00 0.00 0.00 41 1009.2
20260505183032 16 286 8.0 16.1 0.00 0.00 0.00 40 1009.2
20260505181522 16 354 6.4 16.1 0.00 0.00 0.00 38 1009.1
20260505180040 17 28 6.4 16.1 0.00 0.00 0.00 38 1009.0
20260505174520 17 307 8.0 19.3 0.00 0.00 0.00 37 1009.0
20260505173020 16 320 11.3 24.1 0.00 0.00 0.00 38 1009.0
20260505171519 17 324 6.4 20.9 0.00 0.00 0.00 37 1008.9
20260505170023 17 233 9.7 22.5 0.00 0.00 0.00 36 1008.9
20260505164518 17 8 1.6 16.1 0.00 0.00 0.00 36 1008.9
20260505163017 17 339 6.4 22.5 0.00 0.00 0.00 36 1008.9
20260505161517 17 311 6.4 22.5 0.00 0.00 0.00 37 1009.0
20260505153015 17 4 8.0 22.5 0.00 0.00 0.00 37 1009.0
20260505151514 17 311 9.7 25.7 0.00 0.00 0.00 38 1008.9
20260505124505 17 247 4.8 22.5 0.00 0.00 0.00 43 1009.3
20260505123102 16 240 6.4 22.5 0.00 0.00 0.00 45 1009.4
20260505121558 16 247 3.2 17.7 0.00 0.00 0.00 45 1009.5
20260505120059 16 258 6.4 17.7 0.00 0.00 0.00 44 1009.4
20260505114559 16 311 0.0 16.1 0.00 0.00 0.00 47 1009.6
20260505113056 16 275 4.8 20.9 0.00 0.00 0.00 45 1009.8
20260505111551 16 285 4.8 17.7 0.00 0.00 0.00 44 1009.9
20260505101601 15 290 3.2 14.5 0.00 0.00 0.00 49 1010.3
20260505100100 15 324 1.6 9.7 0.00 0.00 0.00 50 1010.4
20260505094543 15 189 3.2 9.7 0.00 0.00 0.00 49 1010.2
20260505093042 15 267 0.0 8.0 0.00 0.00 0.00 51 1010.3
20260505091539 14 252 0.0 4.8 0.00 0.00 0.00 55 1010.4
20260505090040 13 298 1.6 4.8 0.00 0.00 0.00 54 1010.3
20260505084536 13 222 0.0 4.8 0.00 0.00 0.00 57 1010.3
20260505083036 13 229 3.2 6.4 0.00 0.00 0.00 59 1010.3
20260505081531 13 109 3.2 16.1 0.00 0.00 0.00 66 1010.4
20260505080027 12 107 3.2 12.9 0.00 0.00 0.00 71 1010.4
20260505074526 12 100 0.0 8.0 0.00 0.00 0.00 68 1010.5
20260505073034 11 148 0.0 1.6 0.00 0.00 0.00 70 1010.5
20260505071524 11 217 0.0 0.0 0.00 0.00 0.00 75 1010.5
20260505070024 10 156 0.0 3.2 0.00 0.00 0.00 77 1010.3
20260505064524 10 115 0.0 4.8 0.00 0.00 0.00 80 1010.3
20260505063021 10 99 3.2 6.4 0.00 0.00 0.00 79 1010.2
20260505061525 9 119 0.0 1.6 0.00 0.00 0.00 79 1010.2
20260505060020 9 158 0.0 0.0 0.00 0.00 0.00 80 1010.2
20260505054519 9 158 0.0 0.0 0.00 0.00 0.00 80 1010.1
20260505053033 9 162 0.0 0.0 0.00 0.00 0.00 79 1009.9
20260505051534 9 162 0.0 0.0 0.00 0.00 0.00 77 1009.7
20260505041520 9 236 0.0 1.6 0.00 0.00 0.00 75 1009.7
20260505040015 9 82 0.0 0.0 0.00 0.00 0.00 82 1009.8
20260505034512 9 20 0.0 0.0 0.00 0.00 0.00 82 1009.7
20260505033009 10 240 0.0 0.0 0.00 0.00 0.00 79 1009.8
20260505031509 10 245 0.0 0.0 0.00 0.00 0.00 68 1009.7
20260505030007 11 245 0.0 1.6 0.00 0.00 0.00 67 1009.8
20260505024507 10 233 0.0 1.6 0.00 0.00 0.00 70 1009.9
20260505023012 10 233 0.0 0.0 0.00 0.00 0.00 76 1009.9
20260505021505 11 233 0.0 3.2 0.00 0.00 0.00 66 1009.9
20260505020003 10 267 0.0 0.0 0.00 0.00 0.00 73 1010.0
20260505014502 10 127 0.0 1.6 0.00 0.00 0.00 77 1010.1
20260505013059 11 127 0.0 1.6 0.00 0.00 0.00 71 1010.1
20260505011558 11 255 0.0 1.6 0.00 0.00 0.00 68 1010.1
20260505010116 11 237 0.0 0.0 0.00 0.00 0.00 68 1010.1
20260505004556 11 237 0.0 3.2 0.00 0.00 0.00 68 1010.2
20260505003058 11 229 0.0 3.2 0.00 0.00 0.00 69 1010.4
20260505001552 11 114 0.0 1.6 0.00 0.00 0.00 70 1010.5
20260505000050 12 259 0.0 1.6 0.00 0.00 0.00 64 1010.4